SP4IM-13 Weather Reports


time (UTC)temp
F
wind
direction
speed
knots
gust
knots
rain 1hr
in
rain 24hr
in
rain mn
in
humidity
%
barometer
mb
20260506143002 81 275 2.6 6.1 0.00 0.00 0.00 38 1002.0
20260506142003 81 284 3.5 7.0 0.00 0.00 0.00 38 1001.0
20260506141002 81 285 4.3 9.6 0.00 0.00 0.00 38 1002.0
20260506140002 81 280 1.7 7.0 0.00 0.00 0.00 38 1001.0
20260506135002 81 282 2.6 7.0 0.00 0.00 0.00 37 1001.0
20260506134002 81 258 2.6 4.3 0.00 0.00 0.00 37 1001.0
20260506133002 82 261 3.5 7.0 0.00 0.00 0.00 37 1001.0
20260506132002 82 283 3.5 7.8 0.00 0.00 0.00 38 1002.0
20260506131002 81 270 3.5 9.6 0.00 0.00 0.00 37 1002.0
20260506130003 81 281 2.6 7.0 0.00 0.00 0.00 37 1002.0
20260506125002 81 255 3.5 11.3 0.00 0.00 0.00 37 1002.0
20260506124002 82 233 3.5 8.7 0.00 0.00 0.00 37 1002.0
20260506123003 82 205 2.6 7.0 0.00 0.00 0.00 40 1002.0
20260506122003 82 154 1.7 3.5 0.00 0.00 0.00 41 1002.0
20260506121002 82 128 2.6 4.3 0.00 0.00 0.00 42 1002.0
20260506120002 82 126 2.6 4.3 0.00 0.00 0.00 43 1002.0
20260506115002 81 260 1.7 4.3 0.00 0.00 0.00 45 1002.0
20260506114004 80 128 2.6 4.3 0.00 0.00 0.00 45 1002.0
20260506113002 80 270 1.7 4.3 0.00 0.00 0.00 46 1002.0
20260506112002 80 260 1.7 4.3 0.00 0.00 0.00 46 1002.0
20260506111002 79 145 1.7 4.3 0.00 0.00 0.00 48 1003.0
20260506110002 79 138 1.7 4.3 0.00 0.00 0.00 50 1003.0
20260506105002 78 132 1.7 3.5 0.00 0.00 0.00 52 1003.0
20260506104002 77 135 2.6 7.8 0.00 0.00 0.00 54 1003.0
20260506103002 76 127 1.7 4.3 0.00 0.00 0.00 57 1003.0
20260506102002 75 128 2.6 7.8 0.00 0.00 0.00 58 1003.0
20260506101002 74 128 2.6 7.0 0.00 0.00 0.00 59 1003.0
20260506100002 73 128 1.7 3.5 0.00 0.00 0.00 61 1003.0
20260506095002 72 144 1.7 7.0 0.00 0.00 0.00 63 1004.0
20260506094001 71 119 2.6 7.8 0.00 0.00 0.00 63 1004.0
20260506093003 71 122 3.5 5.2 0.00 0.00 0.00 64 1004.0
20260506092003 70 120 1.7 5.2 0.00 0.00 0.00 65 1004.0
20260506091002 70 131 2.6 6.1 0.00 0.00 0.00 65 1004.0
20260506090003 70 127 3.5 7.0 0.00 0.00 0.00 65 1004.0
20260506085002 70 120 1.7 4.3 0.00 0.00 0.00 65 1004.0
20260506084002 69 119 2.6 5.2 0.00 0.00 0.00 66 1004.0
20260506083003 69 132 2.6 5.2 0.00 0.00 0.00 66 1004.0
20260506082005 69 125 2.6 4.3 0.00 0.00 0.00 65 1004.0
20260506081002 67 125 2.6 5.2 0.00 0.00 0.00 65 1004.0
20260506073003 61 134 2.6 6.1 0.00 0.00 0.00 63 1004.0
20260506072003 61 130 3.5 7.0 0.00 0.00 0.00 63 1004.0
20260506071005 60 132 2.6 5.2 0.00 0.00 0.00 66 1004.0
20260506062008 57 139 4.3 7.8 0.00 0.00 0.00 79 1005.0
20260506061005 56 126 2.6 7.0 0.00 0.00 0.00 78 1005.0
20260506051005 54 126 3.5 6.1 0.00 0.00 0.00 75 1005.0
20260506045003 53 122 3.5 7.8 0.00 0.00 0.00 72 1005.0
20260506044005 52 119 4.3 8.7 0.00 0.00 0.00 76 1005.0
20260506043007 52 120 3.5 7.0 0.00 0.00 0.00 82 1005.0
20260506042004 53 122 3.5 7.0 0.00 0.00 0.00 90 1005.0
20260506041003 52 120 3.5 7.0 0.00 0.00 0.00 91 1005.0
20260506040004 51 115 4.3 6.1 0.00 0.00 0.00 90 1005.0
20260506035005 51 114 3.5 6.1 0.00 0.00 0.00 91 1005.0
20260506034005 51 118 2.6 5.2 0.00 0.00 0.00 91 1005.0
20260506033005 51 118 2.6 5.2 0.00 0.00 0.00 91 1005.0
20260506032006 51 122 2.6 4.3 0.00 0.00 0.00 90 1005.0
20260506031005 51 118 2.6 7.0 0.00 0.00 0.00 90 1005.0
20260506030006 51 114 2.6 3.5 0.00 0.00 0.00 90 1005.0
20260506025002 51 115 1.7 4.3 0.00 0.00 0.00 90 1005.0
20260506024002 51 118 3.5 5.2 0.00 0.00 0.00 90 1005.0
20260506023003 52 113 2.6 5.2 0.00 0.00 0.00 90 1005.0
20260506022003 52 116 2.6 4.3 0.00 0.00 0.00 90 1005.0
20260506021002 52 114 2.6 4.3 0.00 0.00 0.00 90 1005.0
20260506020002 52 112 2.6 5.2 0.00 0.00 0.00 91 1005.0
20260506015003 53 120 3.5 5.2 0.00 0.00 0.00 92 1005.0
20260506014002 53 114 2.6 4.3 0.00 0.00 0.00 92 1005.0
20260506013002 53 118 3.5 7.8 0.00 0.00 0.00 93 1005.0
20260506012002 53 114 3.5 5.2 0.00 0.00 0.00 93 1005.0
20260506011002 53 114 3.5 5.2 0.00 0.00 0.00 93 1005.0
20260506010002 54 116 3.5 6.1 0.00 0.00 0.00 93 1005.0
20260506005002 54 117 3.5 7.0 0.00 0.00 0.00 93 1005.0
20260506004003 54 114 3.5 7.8 0.00 0.00 0.00 93 1005.0
20260506003002 54 111 2.6 5.2 0.00 0.00 0.00 93 1005.0
20260506002002 55 116 3.5 8.7 0.00 0.00 0.00 93 1005.0
20260506001002 55 112 2.6 7.0 0.00 0.00 0.00 94 1005.0
20260506000003 56 116 3.5 6.1 0.00 0.00 0.00 95 1005.0
20260505235002 56 121 2.6 5.2 0.00 0.00 0.00 95 1005.0
20260505234001 56 117 2.6 5.2 0.00 0.00 0.00 95 1005.0
20260505233002 56 113 2.6 6.1 0.00 0.00 0.00 95 1005.0
20260505232003 56 113 3.5 7.8 0.00 0.00 0.00 95 1005.0
20260505231002 56 122 3.5 7.0 0.00 0.00 0.00 95 1005.0
20260505230003 56 116 4.3 7.8 0.00 0.00 0.00 95 1005.0
20260505225002 57 119 3.5 7.8 0.00 0.00 0.00 95 1005.0
20260505224002 57 114 2.6 4.3 0.00 0.00 0.00 94 1005.0
20260505223002 57 124 3.5 4.3 0.00 0.00 0.00 94 1005.0
20260505222002 57 116 2.6 4.3 0.00 0.00 0.00 94 1005.0
20260505221002 57 119 3.5 7.0 0.00 0.00 0.00 94 1005.0
20260505220002 58 120 3.5 7.0 0.00 0.00 0.00 94 1005.0
20260505215002 58 112 2.6 5.2 0.00 0.00 0.00 94 1005.0
20260505214002 58 114 2.6 4.3 0.00 0.00 0.00 94 1005.0
20260505213002 58 119 3.5 5.2 0.00 0.00 0.00 94 1005.0
20260505212002 58 110 3.5 7.0 0.00 0.00 0.00 93 1005.0
20260505211002 58 107 2.6 5.2 0.00 0.00 0.00 93 1005.0
20260505210002 58 117 2.6 5.2 0.00 0.00 0.00 92 1005.0
20260505205002 58 118 2.6 6.1 0.00 0.00 0.00 91 1005.0
20260505204002 59 108 2.6 5.2 0.00 0.00 0.00 90 1005.0
20260505203003 59 116 2.6 5.2 0.00 0.00 0.00 90 1005.0
20260505202003 59 113 1.7 3.5 0.00 0.00 0.00 90 1005.0
20260505201002 59 110 2.6 5.2 0.00 0.00 0.00 89 1005.0
20260505200003 59 112 1.7 4.3 0.00 0.00 0.00 89 1005.0
20260505195003 60 118 3.5 4.3 0.00 0.00 0.00 89 1005.0
20260505194002 60 119 3.5 5.2 0.00 0.00 0.00 89 1005.0
20260505193002 60 119 3.5 6.1 0.00 0.00 0.00 89 1005.0
20260505192002 61 120 3.5 5.2 0.00 0.00 0.00 88 1005.0
20260505191002 61 118 3.5 7.0 0.00 0.00 0.00 88 1005.0
20260505190003 61 115 2.6 4.3 0.00 0.00 0.00 87 1005.0
20260505185002 62 114 2.6 3.5 0.00 0.00 0.00 86 1005.0
20260505184003 62 116 2.6 4.3 0.00 0.00 0.00 86 1005.0
20260505183002 62 117 2.6 4.3 0.00 0.00 0.00 85 1005.0
20260505182002 63 114 2.6 4.3 0.00 0.00 0.00 84 1005.0
20260505181002 63 119 2.6 5.2 0.00 0.00 0.00 84 1005.0
20260505180002 64 119 3.5 5.2 0.00 0.00 0.00 83 1005.0
20260505175003 64 113 2.6 4.3 0.00 0.00 0.00 81 1004.0
20260505174002 64 119 3.5 6.1 0.00 0.00 0.00 79 1004.0
20260505173002 65 121 2.6 6.1 0.00 0.00 0.00 78 1004.0
20260505172003 65 120 3.5 5.2 0.00 0.00 0.00 77 1004.0
20260505171003 65 120 3.5 6.1 0.00 0.00 0.00 76 1004.0
20260505170002 65 114 1.7 3.5 0.00 0.00 0.00 75 1004.0
20260505165003 66 119 2.6 4.3 0.00 0.00 0.00 74 1004.0
20260505164002 66 119 2.6 5.2 0.00 0.00 0.00 73 1005.0
20260505163002 67 117 2.6 7.0 0.00 0.00 0.00 72 1005.0
20260505162002 67 122 3.5 6.1 0.00 0.00 0.00 72 1005.0
20260505161003 67 110 2.6 5.2 0.00 0.00 0.00 71 1005.0
20260505152002 69 305 7.8 13.0 0.00 0.00 0.00 69 1006.0
20260505151002 71 104 3.5 9.6 0.00 0.00 0.00 63 1005.0